This demonstration page uses our WeatherBlox Daily Observations layout. Learn more.

Left ArrowRight Arrow

38.88101, -77.10428

Hourly Observations for February 20, 2021

Temp ( °F °C ) Dew Point ( °F °C ) Humidity (%) Winds ( mph kmh ) Pressure ( in mb ) Visibility ( mi km ) Precip ( " mm )
12:52 am 00:52 Mostly Cloudy 32 0 18 -7.8 56 56 NW 15 24 30.20 1023 10 16 0.00 0.00
1:52 am 01:52 Cloudy 31 -0.6 17 -8.3 56 56 NW 13 20 30.21 1023 10 16 0.00 0.00
2:52 am 02:52 Mostly Cloudy 31 -0.6 17 -8.3 56 56 NW 15 24 30.21 1023 10 16 0.00 0.00
3:52 am 03:52 Mostly Cloudy 30 -1.1 18 -7.8 61 61 NNW 7 11 30.21 1023 10 16 0.00 0.00
4:52 am 04:52 Cloudy 29 -1.7 15 -9.4 56 56 NNW 12 19 30.21 1023 10 16 0.00 0.00
5:52 am 05:52 Cloudy 28 -2.2 13 -10.6 53 53 NW 16 26 30.22 1024 10 16 0.00 0.00
6:52 am 06:52 Mostly Cloudy 28 -2.2 12 -11.1 51 51 NW 15 24 30.24 1024 10 16 0.00 0.00
7:52 am 07:52 Mostly Cloudy 28 -2.2 12 -11.1 51 51 WNW 9 15 30.29 1026 10 16 0.00 0.00
8:52 am 08:52 Partly Cloudy 29 -1.7 12 -11.1 49 49 NW 9 15 30.29 1026 10 16 0.00 0.00
9:52 am 09:52 Mostly Cloudy 29 -1.7 9 -12.8 43 43 W 20 31 30.29 1026 10 16 0.00 0.00
10:52 am 10:52 Mostly Cloudy 29 -1.7 11 -11.7 47 47 NW 16 26 30.30 1026 10 16 0.00 0.00
11:52 am 11:52 Partly Cloudy 31 -0.6 10 -12.2 42 42 NW 17 28 30.30 1026 10 16 0.00 0.00
12:52 pm 12:52 Partly Cloudy 32 0 10 -12.2 40 40 NW 13 20 30.29 1026 10 16 0.00 0.00
1:52 pm 13:52 Partly Cloudy 32 0 9 -12.8 38 38 WNW 20 31 30.27 1025 10 16 0.00 0.00
2:52 pm 14:52 Partly Cloudy 32 0 9 -12.8 38 38 WNW 20 31 30.29 1026 10 16 0.00 0.00
3:52 pm 15:52 Mostly Cloudy 32 0 9 -12.8 38 38 NW 14 22 30.30 1026 10 16 0.00 0.00
4:52 pm 16:52 Mostly Cloudy 31 -0.6 9 -12.8 40 40 NW 21 33 30.31 1027 10 16 0.00 0.00
5:52 pm 17:52 Mostly Cloudy 30 -1.1 9 -12.8 41 41 NW 14 22 30.35 1028 10 16 0.00 0.00
6:52 pm 18:52 Mostly Cloudy 29 -1.7 6 -14.4 38 38 NW 10 17 30.38 1029 10 16 0.00 0.00
7:52 pm 19:52 Mostly Clear 28 -2.2 7 -13.9 41 41 NW 16 26 30.40 1030 10 16 0.00 0.00
8:52 pm 20:52 Clear 28 -2.2 7 -13.9 41 41 NW 14 22 30.42 1030 10 16 0.00 0.00
9:52 pm 21:52 Clear 27 -2.8 8 -13.3 45 45 NW 12 19 30.45 1031 10 16 0.00 0.00
10:52 pm 22:52 Clear 27 -2.8 9 -12.8 46 46 NW 14 22 30.47 1032 10 16 0.00 0.00
11:52 pm 23:52 Mostly Clear 27 -2.8 10 -12.2 49 49 WNW 10 17 30.49 1033 10 16 0.00 0.00

Powered by AerisWeather